Time,TemperatureF,DewpointF,PressureIn,WindDirection,WindDirectionDegrees,WindSpeedMPH,WindSpeedGustMPH,Humidity,HourlyPrecipIn,Conditions,Clouds,dailyrainin,SoftwareType,DateUTC
2013-01-08 00:02:00,27.7,21.7,30.22,SW,225,0.0,-999.0,78,0.00,,,0.00,open2300 v1.10,2013-01-08 06:02:00,
2013-01-08 00:09:00,28.0,22.0,30.22,SW,225,0.0,-999.0,78,0.00,,,0.00,open2300 v1.10,2013-01-08 06:09:00,
2013-01-08 00:15:00,28.0,22.0,30.22,SW,225,0.0,-999.0,78,0.00,,,0.00,open2300 v1.10,2013-01-08 06:15:00,
2013-01-08 00:24:00,28.0,22.0,30.22,SW,225,0.0,-999.0,78,0.00,,,0.00,open2300 v1.10,2013-01-08 06:24:00,
2013-01-08 00:30:00,28.0,22.0,30.22,SW,225,0.0,-999.0,78,0.00,,,0.00,open2300 v1.10,2013-01-08 06:30:00,
2013-01-08 00:39:00,28.0,22.3,30.22,SW,225,0.0,-999.0,79,0.00,,,0.00,open2300 v1.10,2013-01-08 06:39:00,
2013-01-08 00:45:00,28.0,22.3,30.21,SW,225,0.0,-999.0,79,0.00,,,0.00,open2300 v1.10,2013-01-08 06:45:00,
2013-01-08 00:54:00,28.2,22.5,30.21,SW,225,0.0,-999.0,79,0.00,,,0.00,open2300 v1.10,2013-01-08 06:54:00,
2013-01-08 01:03:00,28.4,22.7,30.22,SW,225,0.0,-999.0,79,0.00,,,0.00,open2300 v1.10,2013-01-08 07:03:00,
2013-01-08 01:09:00,28.6,22.9,30.22,SW,225,0.0,-999.0,79,0.00,,,0.00,open2300 v1.10,2013-01-08 07:09:00,
2013-01-08 01:15:00,28.6,22.9,30.22,SW,225,0.0,-999.0,79,0.00,,,0.00,open2300 v1.10,2013-01-08 07:15:00,
2013-01-08 01:24:00,28.8,23.0,30.22,SW,225,0.0,-999.0,79,0.00,,,0.00,open2300 v1.10,2013-01-08 07:24:00,
2013-01-08 01:30:00,28.6,23.2,30.22,SW,225,0.0,-999.0,80,0.00,,,0.00,open2300 v1.10,2013-01-08 07:30:00,
2013-01-08 01:39:00,28.6,23.2,30.22,SW,225,0.0,-999.0,80,0.00,,,0.00,open2300 v1.10,2013-01-08 07:39:00,
2013-01-08 01:45:00,28.6,23.2,30.22,SW,225,0.0,-999.0,80,0.00,,,0.00,open2300 v1.10,2013-01-08 07:45:00,
2013-01-08 01:54:00,28.6,23.2,30.22,SW,225,0.0,-999.0,80,0.00,,,0.00,open2300 v1.10,2013-01-08 07:54:00,
2013-01-08 02:01:00,28.8,23.4,30.22,SW,225,0.0,-999.0,80,0.00,,,0.00,open2300 v1.10,2013-01-08 08:01:00,
2013-01-08 02:09:00,28.9,23.5,30.22,SW,225,0.0,-999.0,80,0.00,,,0.00,open2300 v1.10,2013-01-08 08:09:00,
2013-01-08 02:15:00,28.9,23.5,30.22,SW,225,0.0,-999.0,80,0.00,,,0.00,open2300 v1.10,2013-01-08 08:15:00,
2013-01-08 02:24:00,28.8,23.4,30.22,SW,225,0.0,-999.0,80,0.00,,,0.00,open2300 v1.10,2013-01-08 08:24:00,
2013-01-08 02:30:00,28.6,23.2,30.22,SW,225,0.0,-999.0,80,0.00,,,0.00,open2300 v1.10,2013-01-08 08:30:00,
2013-01-08 02:39:00,28.6,23.2,30.22,SW,225,0.0,-999.0,80,0.00,,,0.00,open2300 v1.10,2013-01-08 08:39:00,
2013-01-08 02:45:00,28.2,22.8,30.21,SW,225,0.0,-999.0,80,0.00,,,0.00,open2300 v1.10,2013-01-08 08:45:00,
2013-01-08 02:54:00,28.0,22.9,30.22,SW,225,0.0,-999.0,81,0.00,,,0.00,open2300 v1.10,2013-01-08 08:54:00,
2013-01-08 03:01:00,28.0,22.9,30.22,SW,225,0.0,-999.0,81,0.00,,,0.00,open2300 v1.10,2013-01-08 09:01:00,
2013-01-08 03:09:00,27.9,22.8,30.22,SW,225,0.0,-999.0,81,0.00,,,0.00,open2300 v1.10,2013-01-08 09:09:00,
2013-01-08 03:15:00,27.7,22.6,30.21,SW,225,0.0,-999.0,81,0.00,,,0.00,open2300 v1.10,2013-01-08 09:15:00,
2013-01-08 03:24:00,27.7,22.6,30.20,SW,225,0.0,-999.0,81,0.00,,,0.00,open2300 v1.10,2013-01-08 09:24:00,
2013-01-08 03:30:00,27.7,22.6,30.20,SW,225,0.0,-999.0,81,0.00,,,0.00,open2300 v1.10,2013-01-08 09:30:00,
2013-01-08 03:39:00,27.7,22.6,30.20,SW,225,0.0,-999.0,81,0.00,,,0.00,open2300 v1.10,2013-01-08 09:39:00,
2013-01-08 03:45:00,27.5,22.7,30.21,SW,225,0.0,-999.0,82,0.00,,,0.00,open2300 v1.10,2013-01-08 09:45:00,
2013-01-08 03:54:00,27.5,22.7,30.21,SW,225,0.0,-999.0,82,0.00,,,0.00,open2300 v1.10,2013-01-08 09:54:00,
2013-01-08 04:01:00,27.5,22.7,30.21,SW,225,0.0,-999.0,82,0.00,,,0.00,open2300 v1.10,2013-01-08 10:01:00,
2013-01-08 04:09:00,27.5,22.7,30.21,SW,225,0.0,-999.0,82,0.00,,,0.00,open2300 v1.10,2013-01-08 10:09:00,
2013-01-08 04:15:00,27.5,22.7,30.21,SW,225,0.0,-999.0,82,0.00,,,0.00,open2300 v1.10,2013-01-08 10:15:00,
2013-01-08 04:24:00,27.5,22.7,30.20,SW,225,0.0,-999.0,82,0.00,,,0.00,open2300 v1.10,2013-01-08 10:24:00,
2013-01-08 04:30:00,27.5,22.7,30.20,SW,225,0.0,-999.0,82,0.00,,,0.00,open2300 v1.10,2013-01-08 10:30:00,
2013-01-08 04:39:00,27.3,22.5,30.20,SW,225,0.0,-999.0,82,0.00,,,0.00,open2300 v1.10,2013-01-08 10:39:00,
2013-01-08 04:45:00,27.3,22.5,30.21,SW,225,0.0,-999.0,82,0.00,,,0.00,open2300 v1.10,2013-01-08 10:45:00,
2013-01-08 04:54:00,27.3,22.5,30.20,SW,225,0.0,-999.0,82,0.00,,,0.00,open2300 v1.10,2013-01-08 10:54:00,
2013-01-08 05:01:00,27.1,22.3,30.20,SW,225,0.0,-999.0,82,0.00,,,0.00,open2300 v1.10,2013-01-08 11:01:00,
2013-01-08 05:09:00,27.1,22.3,30.21,SW,225,0.0,-999.0,82,0.00,,,0.00,open2300 v1.10,2013-01-08 11:09:00,
2013-01-08 05:15:00,27.1,22.3,30.21,SW,225,0.0,-999.0,82,0.00,,,0.00,open2300 v1.10,2013-01-08 11:15:00,
2013-01-08 05:24:00,27.1,22.6,30.21,SW,225,0.0,-999.0,83,0.00,,,0.00,open2300 v1.10,2013-01-08 11:24:00,
2013-01-08 05:30:00,27.1,22.6,30.22,SW,225,0.0,-999.0,83,0.00,,,0.00,open2300 v1.10,2013-01-08 11:30:00,
2013-01-08 05:39:00,27.1,22.6,30.22,SW,225,0.0,-999.0,83,0.00,,,0.00,open2300 v1.10,2013-01-08 11:39:00,
2013-01-08 05:45:00,27.0,22.4,30.22,SW,225,0.0,-999.0,83,0.00,,,0.00,open2300 v1.10,2013-01-08 11:45:00,
2013-01-08 05:54:00,27.0,22.4,30.22,SW,225,0.0,-999.0,83,0.00,,,0.00,open2300 v1.10,2013-01-08 11:54:00,
2013-01-08 06:01:00,26.8,22.2,30.22,SW,225,0.0,-999.0,83,0.00,,,0.00,open2300 v1.10,2013-01-08 12:01:00,
2013-01-08 06:09:00,26.8,22.2,30.23,SW,225,0.0,-999.0,83,0.00,,,0.00,open2300 v1.10,2013-01-08 12:09:00,
2013-01-08 06:15:00,26.8,22.2,30.24,SW,225,0.0,-999.0,83,0.00,,,0.00,open2300 v1.10,2013-01-08 12:15:00,
2013-01-08 06:24:00,27.0,22.4,30.24,SW,225,0.0,-999.0,83,0.00,,,0.00,open2300 v1.10,2013-01-08 12:24:00,
2013-01-08 06:30:00,27.0,22.4,30.24,SW,225,0.0,-999.0,83,0.00,,,0.00,open2300 v1.10,2013-01-08 12:30:00,
2013-01-08 06:39:00,26.8,22.2,30.24,SW,225,0.0,-999.0,83,0.00,,,0.00,open2300 v1.10,2013-01-08 12:39:00,
2013-01-08 06:45:00,27.0,22.4,30.24,SW,225,0.0,-999.0,83,0.00,,,0.00,open2300 v1.10,2013-01-08 12:45:00,
2013-01-08 06:54:00,27.0,22.7,30.24,SW,225,0.0,-999.0,84,0.00,,,0.00,open2300 v1.10,2013-01-08 12:54:00,
2013-01-08 07:01:00,27.1,22.9,30.24,SW,225,0.0,-999.0,84,0.00,,,0.00,open2300 v1.10,2013-01-08 13:01:00,
2013-01-08 07:09:00,27.1,22.9,30.24,SW,225,0.0,-999.0,84,0.00,,,0.00,open2300 v1.10,2013-01-08 13:09:00,
2013-01-08 07:15:00,27.3,23.1,30.24,SW,225,0.0,-999.0,84,0.00,,,0.00,open2300 v1.10,2013-01-08 13:15:00,
2013-01-08 07:24:00,27.3,23.1,30.25,SW,225,0.0,-999.0,84,0.00,,,0.00,open2300 v1.10,2013-01-08 13:24:00,
2013-01-08 07:30:00,27.3,23.1,30.25,SW,225,0.0,-999.0,84,0.00,,,0.00,open2300 v1.10,2013-01-08 13:30:00,
2013-01-08 07:39:00,27.5,23.2,30.25,SW,225,0.0,-999.0,84,0.00,,,0.00,open2300 v1.10,2013-01-08 13:39:00,
2013-01-08 07:45:00,27.5,23.2,30.25,SW,225,0.0,-999.0,84,0.00,,,0.00,open2300 v1.10,2013-01-08 13:45:00,
2013-01-08 07:54:00,27.5,23.2,30.25,SW,225,0.0,-999.0,84,0.00,,,0.00,open2300 v1.10,2013-01-08 13:54:00,
2013-01-08 08:01:00,27.7,23.4,30.26,SW,225,0.0,-999.0,84,0.00,,,0.00,open2300 v1.10,2013-01-08 14:01:00,
2013-01-08 08:09:00,28.2,24.0,30.26,SW,225,0.0,-999.0,84,0.00,,,0.00,open2300 v1.10,2013-01-08 14:09:00,
2013-01-08 08:15:00,28.9,24.7,30.26,SW,225,0.0,-999.0,84,0.00,,,0.00,open2300 v1.10,2013-01-08 14:15:00,
2013-01-08 08:24:00,30.6,26.3,30.26,SW,225,0.0,-999.0,84,0.00,,,0.00,open2300 v1.10,2013-01-08 14:24:00,
2013-01-08 08:30:00,31.6,27.1,30.26,SW,225,0.0,-999.0,83,0.00,,,0.00,open2300 v1.10,2013-01-08 14:30:00,
2013-01-08 08:39:00,32.7,28.1,30.26,SW,225,0.0,-999.0,83,0.00,,,0.00,open2300 v1.10,2013-01-08 14:39:00,
2013-01-08 08:45:00,33.3,28.3,30.26,SW,225,0.0,-999.0,82,0.00,,,0.00,open2300 v1.10,2013-01-08 14:45:00,
2013-01-08 08:54:00,35.4,30.4,30.27,SW,225,0.0,-999.0,82,0.00,,,0.00,open2300 v1.10,2013-01-08 14:54:00,
2013-01-08 09:01:00,37.6,32.0,30.27,SW,225,0.0,-999.0,80,0.00,,,0.00,open2300 v1.10,2013-01-08 15:01:00,
2013-01-08 09:09:00,39.6,33.6,30.27,SW,225,0.0,-999.0,79,0.00,,,0.00,open2300 v1.10,2013-01-08 15:09:00,
2013-01-08 09:15:00,41.5,34.8,30.27,South,180,0.0,-999.0,77,0.00,,,0.00,open2300 v1.10,2013-01-08 15:15:00,
2013-01-08 09:24:00,42.1,35.0,30.27,SSW,202,0.0,-999.0,76,0.00,,,0.00,open2300 v1.10,2013-01-08 15:24:00,
2013-01-08 09:30:00,43.0,35.3,30.28,SW,225,0.0,-999.0,74,0.00,,,0.00,open2300 v1.10,2013-01-08 15:30:00,
2013-01-08 09:39:00,44.4,36.3,30.28,SSW,202,0.0,-999.0,73,0.00,,,0.00,open2300 v1.10,2013-01-08 15:39:00,
2013-01-08 09:45:00,45.3,36.5,30.28,SSW,202,0.0,-999.0,71,0.00,,,0.00,open2300 v1.10,2013-01-08 15:45:00,
2013-01-08 09:54:00,46.9,37.3,30.28,South,180,0.0,-999.0,69,0.00,,,0.00,open2300 v1.10,2013-01-08 15:54:00,
2013-01-08 10:01:00,48.7,37.8,30.27,SSE,157,0.0,-999.0,66,0.00,,,0.00,open2300 v1.10,2013-01-08 16:01:00,
2013-01-08 10:09:00,51.4,39.6,30.27,South,180,0.0,-999.0,64,0.00,,,0.00,open2300 v1.10,2013-01-08 16:09:00,
2013-01-08 10:15:00,54.1,40.6,30.27,SSW,202,0.0,-999.0,60,0.00,,,0.00,open2300 v1.10,2013-01-08 16:15:00,
2013-01-08 10:24:00,56.3,40.8,30.27,South,180,0.0,-999.0,56,0.00,,,0.00,open2300 v1.10,2013-01-08 16:24:00,
2013-01-08 10:30:00,57.6,41.5,30.27,South,180,0.0,-999.0,55,0.00,,,0.00,open2300 v1.10,2013-01-08 16:30:00,
2013-01-08 10:39:00,58.1,41.0,30.27,SW,225,0.0,-999.0,53,0.00,,,0.00,open2300 v1.10,2013-01-08 16:39:00,
2013-01-08 10:45:00,58.3,41.2,30.26,SSE,157,0.0,-999.0,53,0.00,,,0.00,open2300 v1.10,2013-01-08 16:45:00,
2013-01-08 10:54:00,58.8,41.2,30.26,South,180,0.0,-999.0,52,0.00,,,0.00,open2300 v1.10,2013-01-08 16:54:00,
2013-01-08 11:01:00,59.9,41.7,30.26,SSE,157,0.0,-999.0,51,0.00,,,0.00,open2300 v1.10,2013-01-08 17:01:00,
2013-01-08 11:09:00,58.8,40.8,30.25,SE,135,0.0,-999.0,51,0.00,,,0.00,open2300 v1.10,2013-01-08 17:09:00,
2013-01-08 11:15:00,57.4,39.9,30.24,SE,135,0.0,-999.0,52,0.00,,,0.00,open2300 v1.10,2013-01-08 17:15:00,
2013-01-08 11:24:00,55.9,39.0,30.23,SE,135,0.0,-999.0,53,0.00,,,0.00,open2300 v1.10,2013-01-08 17:24:00,
2013-01-08 11:30:00,57.6,40.6,30.22,SW,225,0.0,-999.0,53,0.00,,,0.00,open2300 v1.10,2013-01-08 17:30:00,
2013-01-08 11:39:00,59.4,41.2,30.22,SSE,157,0.0,-999.0,51,0.00,,,0.00,open2300 v1.10,2013-01-08 17:39:00,
2013-01-08 11:45:00,60.6,40.8,30.22,SW,225,0.0,-999.0,48,0.00,,,0.00,open2300 v1.10,2013-01-08 17:45:00,
2013-01-08 11:54:00,61.0,41.1,30.21,SSE,157,0.0,-999.0,48,0.00,,,0.00,open2300 v1.10,2013-01-08 17:54:00,
2013-01-08 12:01:00,62.2,41.7,30.21,SE,135,0.0,-999.0,47,0.00,,,0.00,open2300 v1.10,2013-01-08 18:01:00,
2013-01-08 12:09:00,61.9,40.8,30.21,SE,135,0.0,-999.0,46,0.00,,,0.00,open2300 v1.10,2013-01-08 18:09:00,
2013-01-08 12:15:00,61.5,41.0,30.21,SE,135,0.0,-999.0,47,0.00,,,0.00,open2300 v1.10,2013-01-08 18:15:00,
2013-01-08 12:24:00,59.9,40.1,30.20,SE,135,0.0,-999.0,48,0.00,,,0.00,open2300 v1.10,2013-01-08 18:24:00,
2013-01-08 12:30:00,59.2,39.5,30.20,South,180,0.0,-999.0,48,0.00,,,0.00,open2300 v1.10,2013-01-08 18:30:00,
2013-01-08 12:39:00,58.8,39.7,30.19,SE,135,0.0,-999.0,49,0.00,,,0.00,open2300 v1.10,2013-01-08 18:39:00,
2013-01-08 12:45:00,58.3,39.8,30.19,SE,135,0.0,-999.0,50,0.00,,,0.00,open2300 v1.10,2013-01-08 18:45:00,
2013-01-08 12:54:00,58.1,39.7,30.19,SW,225,0.0,-999.0,50,0.00,,,0.00,open2300 v1.10,2013-01-08 18:54:00,
2013-01-08 13:01:00,57.7,39.8,30.19,SE,135,0.0,-999.0,51,0.00,,,0.00,open2300 v1.10,2013-01-08 19:01:00,
2013-01-08 13:09:00,57.6,39.6,30.18,SE,135,0.0,-999.0,51,0.00,,,0.00,open2300 v1.10,2013-01-08 19:09:00,
2013-01-08 13:15:00,57.4,39.5,30.18,South,180,0.0,-999.0,51,0.00,,,0.00,open2300 v1.10,2013-01-08 19:15:00,
2013-01-08 13:24:00,57.7,39.8,30.18,SE,135,0.0,-999.0,51,0.00,,,0.00,open2300 v1.10,2013-01-08 19:24:00,
2013-01-08 13:30:00,57.6,39.6,30.18,SE,135,0.0,-999.0,51,0.00,,,0.00,open2300 v1.10,2013-01-08 19:30:00,
2013-01-08 13:39:00,57.4,39.9,30.18,SE,135,0.0,-999.0,52,0.00,,,0.00,open2300 v1.10,2013-01-08 19:39:00,
2013-01-08 13:45:00,57.4,39.5,30.18,SSW,202,0.0,-999.0,51,0.00,,,0.00,open2300 v1.10,2013-01-08 19:45:00,
2013-01-08 13:54:00,57.4,39.9,30.17,SSE,157,0.0,-999.0,52,0.00,,,0.00,open2300 v1.10,2013-01-08 19:54:00,
2013-01-08 14:01:00,57.2,39.8,30.18,SE,135,0.0,-999.0,52,0.00,,,0.00,open2300 v1.10,2013-01-08 20:01:00,
2013-01-08 14:09:00,57.6,40.1,30.18,SE,135,0.0,-999.0,52,0.00,,,0.00,open2300 v1.10,2013-01-08 20:09:00,
2013-01-08 14:15:00,57.7,40.3,30.17,SSW,202,0.0,-999.0,52,0.00,,,0.00,open2300 v1.10,2013-01-08 20:15:00,
2013-01-08 14:24:00,58.1,40.6,30.17,SE,135,0.0,-999.0,52,0.00,,,0.00,open2300 v1.10,2013-01-08 20:24:00,
2013-01-08 14:30:00,58.3,40.3,30.18,SE,135,0.0,-999.0,51,0.00,,,0.00,open2300 v1.10,2013-01-08 20:30:00,
2013-01-08 14:39:00,58.1,40.1,30.17,ESE,112,0.0,-999.0,51,0.00,,,0.00,open2300 v1.10,2013-01-08 20:39:00,
2013-01-08 14:45:00,58.1,40.1,30.18,ESE,112,0.0,-999.0,51,0.00,,,0.00,open2300 v1.10,2013-01-08 20:45:00,
2013-01-08 14:54:00,57.7,40.3,30.18,SE,135,0.0,-999.0,52,0.00,,,0.00,open2300 v1.10,2013-01-08 20:54:00,
2013-01-08 15:01:00,57.6,40.1,30.17,SE,135,0.0,-999.0,52,0.00,,,0.00,open2300 v1.10,2013-01-08 21:01:00,
2013-01-08 15:09:00,57.4,40.4,30.17,SE,135,0.0,-999.0,53,0.00,,,0.00,open2300 v1.10,2013-01-08 21:09:00,
2013-01-08 15:15:00,57.0,40.1,30.17,SE,135,0.0,-999.0,53,0.00,,,0.00,open2300 v1.10,2013-01-08 21:15:00,
2013-01-08 15:24:00,57.0,40.1,30.17,SE,135,0.0,-999.0,53,0.00,,,0.00,open2300 v1.10,2013-01-08 21:24:00,
2013-01-08 15:30:00,57.0,40.1,30.17,SE,135,0.0,-999.0,53,0.00,,,0.00,open2300 v1.10,2013-01-08 21:30:00,
2013-01-08 15:39:00,56.8,40.3,30.17,SE,135,0.0,-999.0,54,0.00,,,0.00,open2300 v1.10,2013-01-08 21:39:00,
2013-01-08 15:45:00,56.5,39.5,30.17,SE,135,0.0,-999.0,53,0.00,,,0.00,open2300 v1.10,2013-01-08 21:45:00,
2013-01-08 15:54:00,56.1,39.6,30.17,SE,135,0.0,-999.0,54,0.00,,,0.00,open2300 v1.10,2013-01-08 21:54:00,
2013-01-08 16:01:00,55.6,39.6,30.17,SE,135,0.0,-999.0,55,0.00,,,0.00,open2300 v1.10,2013-01-08 22:01:00,
2013-01-08 16:09:00,55.2,39.2,30.16,SE,135,0.0,-999.0,55,0.00,,,0.00,open2300 v1.10,2013-01-08 22:09:00,
2013-01-08 16:15:00,55.0,39.1,30.16,SE,135,0.0,-999.0,55,0.00,,,0.00,open2300 v1.10,2013-01-08 22:15:00,
2013-01-08 16:24:00,54.5,39.0,30.18,SE,135,0.0,-999.0,56,0.00,,,0.00,open2300 v1.10,2013-01-08 22:24:00,
2013-01-08 16:30:00,54.1,39.2,30.18,SE,135,0.0,-999.0,57,0.00,,,0.00,open2300 v1.10,2013-01-08 22:30:00,
2013-01-08 16:39:00,53.8,38.9,30.17,SE,135,0.0,-999.0,57,0.00,,,0.00,open2300 v1.10,2013-01-08 22:39:00,
2013-01-08 16:45:00,53.4,38.5,30.17,SE,135,0.0,-999.0,57,0.00,,,0.00,open2300 v1.10,2013-01-08 22:45:00,
2013-01-08 16:54:00,52.9,38.4,30.16,SE,135,0.0,-999.0,58,0.00,,,0.00,open2300 v1.10,2013-01-08 22:54:00,
2013-01-08 17:01:00,52.3,38.4,30.17,SE,135,0.0,-999.0,59,0.00,,,0.00,open2300 v1.10,2013-01-08 23:01:00,
2013-01-08 17:09:00,52.2,38.2,30.17,SE,135,0.0,-999.0,59,0.00,,,0.00,open2300 v1.10,2013-01-08 23:09:00,
2013-01-08 17:15:00,52.0,38.5,30.17,SE,135,0.0,-999.0,60,0.00,,,0.00,open2300 v1.10,2013-01-08 23:15:00,
2013-01-08 17:24:00,51.6,38.5,30.17,SE,135,0.0,-999.0,61,0.00,,,0.00,open2300 v1.10,2013-01-08 23:24:00,
2013-01-08 17:30:00,51.3,38.2,30.17,SE,135,0.0,-999.0,61,0.00,,,0.00,open2300 v1.10,2013-01-08 23:30:00,
2013-01-08 17:39:00,50.4,37.8,30.17,SE,135,0.0,-999.0,62,0.00,,,0.00,open2300 v1.10,2013-01-08 23:39:00,
2013-01-08 17:45:00,50.2,38.0,30.17,SE,135,0.0,-999.0,63,0.00,,,0.00,open2300 v1.10,2013-01-08 23:45:00,
2013-01-08 17:54:00,49.8,37.7,30.17,SE,135,0.0,-999.0,63,0.00,,,0.00,open2300 v1.10,2013-01-08 23:54:00,
2013-01-08 18:01:00,49.6,37.9,30.16,SE,135,0.0,-999.0,64,0.00,,,0.00,open2300 v1.10,2013-01-09 00:01:00,
2013-01-08 18:09:00,49.3,37.6,30.17,SE,135,0.0,-999.0,64,0.00,,,0.00,open2300 v1.10,2013-01-09 00:09:00,
2013-01-08 18:15:00,49.1,37.8,30.17,SE,135,0.0,-999.0,65,0.00,,,0.00,open2300 v1.10,2013-01-09 00:15:00,
2013-01-08 18:24:00,49.1,37.8,30.17,SE,135,0.0,-999.0,65,0.00,,,0.00,open2300 v1.10,2013-01-09 00:24:00,
2013-01-08 18:30:00,48.9,37.6,30.16,SE,135,0.0,-999.0,65,0.00,,,0.00,open2300 v1.10,2013-01-09 00:30:00,
2013-01-08 18:39:00,48.7,38.2,30.16,SE,135,0.0,-999.0,67,0.00,,,0.00,open2300 v1.10,2013-01-09 00:39:00,
2013-01-08 18:45:00,48.9,38.4,30.16,SE,135,0.0,-999.0,67,0.00,,,0.00,open2300 v1.10,2013-01-09 00:45:00,
2013-01-08 18:54:00,49.1,38.6,30.17,SE,135,0.0,-999.0,67,0.00,,,0.00,open2300 v1.10,2013-01-09 00:54:00,
2013-01-08 19:01:00,49.6,38.7,30.18,SE,135,0.0,-999.0,66,0.00,,,0.00,open2300 v1.10,2013-01-09 01:01:00,
2013-01-08 19:09:00,49.8,38.9,30.17,SE,135,0.0,-999.0,66,0.00,,,0.00,open2300 v1.10,2013-01-09 01:09:00,
2013-01-08 19:15:00,50.2,39.2,30.17,SE,135,0.0,-999.0,66,0.00,,,0.00,open2300 v1.10,2013-01-09 01:15:00,
2013-01-08 19:24:00,50.4,39.0,30.17,SE,135,0.0,-999.0,65,0.00,,,0.00,open2300 v1.10,2013-01-09 01:24:00,
2013-01-08 19:30:00,50.7,39.3,30.17,SE,135,0.0,-999.0,65,0.00,,,0.00,open2300 v1.10,2013-01-09 01:30:00,
2013-01-08 19:39:00,50.5,39.2,30.17,SE,135,0.0,-999.0,65,0.00,,,0.00,open2300 v1.10,2013-01-09 01:39:00,
2013-01-08 19:45:00,50.5,39.2,30.17,SE,135,0.0,-999.0,65,0.00,,,0.00,open2300 v1.10,2013-01-09 01:45:00,
2013-01-08 19:54:00,50.7,39.3,30.17,SE,135,0.0,-999.0,65,0.00,,,0.00,open2300 v1.10,2013-01-09 01:54:00,
2013-01-08 20:01:00,50.7,39.3,30.17,SE,135,0.0,-999.0,65,0.00,,,0.00,open2300 v1.10,2013-01-09 02:01:00,
2013-01-08 20:09:00,50.7,38.9,30.17,SE,135,0.0,-999.0,64,0.00,,,0.00,open2300 v1.10,2013-01-09 02:09:00,
2013-01-08 20:15:00,50.9,39.1,30.17,SE,135,0.0,-999.0,64,0.00,,,0.00,open2300 v1.10,2013-01-09 02:15:00,
2013-01-08 20:24:00,51.3,39.0,30.17,SE,135,0.0,-999.0,63,0.00,,,0.00,open2300 v1.10,2013-01-09 02:24:00,
2013-01-08 20:30:00,51.3,39.0,30.17,SE,135,0.0,-999.0,63,0.00,,,0.00,open2300 v1.10,2013-01-09 02:30:00,
2013-01-08 20:39:00,51.1,38.9,30.16,SE,135,0.0,-999.0,63,0.00,,,0.00,open2300 v1.10,2013-01-09 02:39:00,
2013-01-08 20:45:00,50.9,39.1,30.16,SE,135,0.0,-999.0,64,0.00,,,0.00,open2300 v1.10,2013-01-09 02:45:00,
2013-01-08 20:54:00,50.7,38.9,30.16,SE,135,0.0,-999.0,64,0.00,,,0.00,open2300 v1.10,2013-01-09 02:54:00,
2013-01-08 21:01:00,50.9,39.1,30.16,SE,135,0.0,-999.0,64,0.00,,,0.00,open2300 v1.10,2013-01-09 03:01:00,
2013-01-08 21:09:00,50.7,38.9,30.16,SE,135,0.0,-999.0,64,0.00,,,0.00,open2300 v1.10,2013-01-09 03:09:00,
2013-01-08 21:15:00,50.9,39.5,30.16,SSW,202,0.0,-999.0,65,0.00,,,0.00,open2300 v1.10,2013-01-09 03:15:00,
2013-01-08 21:24:00,51.4,39.6,30.17,SSW,202,0.0,-999.0,64,0.00,,,0.00,open2300 v1.10,2013-01-09 03:24:00,
2013-01-08 21:30:00,51.6,39.8,30.17,SW,225,0.0,-999.0,64,0.00,,,0.00,open2300 v1.10,2013-01-09 03:30:00,
2013-01-08 21:39:00,51.8,40.0,30.17,SW,225,0.0,-999.0,64,0.00,,,0.00,open2300 v1.10,2013-01-09 03:39:00,
2013-01-08 21:45:00,51.6,39.8,30.17,WSW,247,0.0,-999.0,64,0.00,,,0.00,open2300 v1.10,2013-01-09 03:45:00,
2013-01-08 21:54:00,51.6,39.8,30.18,WSW,247,0.0,-999.0,64,0.00,,,0.00,open2300 v1.10,2013-01-09 03:54:00,
2013-01-08 22:01:00,52.0,40.5,30.18,West,270,0.0,-999.0,65,0.00,,,0.00,open2300 v1.10,2013-01-09 04:01:00,
2013-01-08 22:09:00,52.3,40.9,30.19,SW,225,0.0,-999.0,65,0.00,,,0.00,open2300 v1.10,2013-01-09 04:09:00,
2013-01-08 22:15:00,52.3,40.9,30.19,SSE,157,0.0,-999.0,65,0.00,,,0.00,open2300 v1.10,2013-01-09 04:15:00,
2013-01-08 22:24:00,52.7,41.2,30.19,SSW,202,0.0,-999.0,65,0.00,,,0.00,open2300 v1.10,2013-01-09 04:24:00,
2013-01-08 22:30:00,52.9,41.8,30.19,SSW,202,0.0,-999.0,66,0.00,,,0.00,open2300 v1.10,2013-01-09 04:30:00,
2013-01-08 22:39:00,52.9,41.8,30.19,South,180,0.0,-999.0,66,0.00,,,0.00,open2300 v1.10,2013-01-09 04:39:00,
2013-01-08 22:45:00,52.9,41.8,30.19,SW,225,0.0,-999.0,66,0.00,,,0.00,open2300 v1.10,2013-01-09 04:45:00,
2013-01-08 22:54:00,52.9,41.8,30.20,SSW,202,0.0,-999.0,66,0.00,,,0.00,open2300 v1.10,2013-01-09 04:54:00,
2013-01-08 23:01:00,53.2,42.1,30.20,SSE,157,0.0,-999.0,66,0.00,,,0.00,open2300 v1.10,2013-01-09 05:01:00,
2013-01-08 23:09:00,53.2,42.1,30.20,South,180,0.0,-999.0,66,0.00,,,0.00,open2300 v1.10,2013-01-09 05:09:00,
2013-01-08 23:15:00,53.2,42.1,30.20,WSW,247,0.0,-999.0,66,0.00,,,0.00,open2300 v1.10,2013-01-09 05:15:00,
2013-01-08 23:24:00,53.4,42.3,30.20,SW,225,0.0,-999.0,66,0.00,,,0.00,open2300 v1.10,2013-01-09 05:24:00,
2013-01-08 23:30:00,53.4,42.7,30.21,South,180,0.0,-999.0,67,0.00,,,0.00,open2300 v1.10,2013-01-09 05:30:00,
2013-01-08 23:39:00,53.4,42.7,30.21,South,180,0.0,-999.0,67,0.00,,,0.00,open2300 v1.10,2013-01-09 05:39:00,
2013-01-08 23:45:00,53.4,42.7,30.21,SW,225,0.0,-999.0,67,0.00,,,0.00,open2300 v1.10,2013-01-09 05:45:00,
2013-01-08 23:54:00,53.4,42.7,30.21,WSW,247,0.0,-999.0,67,0.00,,,0.00,open2300 v1.10,2013-01-09 05:54:00,